User: anonymous   Login
Location: Caltech
(34.1382°N, 118.1253°W)
Time: 20:19:30
(UTC-07:00)
Language:

Cosmos 1939 Rocket - Orbit

View from above orbital plane
View from above orbital plane
View from above satellite
View from above satellite

Ground track
Ground track

The orbit data is extracted from the following two-line orbital elements,

1 19046U 88032B   16181.73536450  .00000184  00000-0  18450-4 0  9996
2 19046  97.5836 231.7403 0041516  93.2567 267.3409 15.01955923519735
Epoch (UTC): 29 June 2016 17:38:55
Eccentricity: 0.0041516
inclination: 97.5836°
perigee height: 532 km
apogee height: 589 km
right ascension of ascending node: 231.7403°
argument of perigee: 93.2567°
revolutions per day: 15.01955923
mean anomaly at epoch: 267.3409°
orbit number at epoch: 51973

The dashed part of the orbit path shows where the satellite is in the earth's shadow,  

DLR